Avoca, PA

2:46 AM EST on November 22, 2019 (GMT -0500)
Wilkes-Barre-Scranton International

Weather History for KAVP - July, 2019

Change the Weather History Date:

Wednesday, July 10, 2019

  Actual Average Record
Temperature  
Mean Temperature 77 °F 72 °F  
Max Temperature 89 °F 82 °F 101 °F (1936)
Min Temperature 64 °F 61 °F 48 °F (1983)
Degree Days  
Heating Degree Days 0 0  
Month to date heating degree days 0 0  
Since 1 June heating degree days 32 54  
Since 1 July heating degree days 0 0  
Cooling Degree Days 12 7  
Month to date cooling degree days 112 65  
Year to date cooling degree days 277 219  
Since 1 June cooling degree days 227 182  
Growing Degree Days 26 (Base 50)    
Moisture  
Dew Point 65 °F    
Average Humidity 70    
Maximum Humidity 93    
Minimum Humidity 46    
Precipitation  
Precipitation 0.00 in 0.12 in 1.70 in (1959)
Month to date precipitation 3.65 1.14  
Year to date precipitation 28.35 18.97  
Sea Level Pressure  
Sea Level Pressure 30.02 in    
Wind  
Wind Speed 5 mph (South)    
Max Wind Speed 13 mph    
Max Gust Speed 19 mph    
Visibility 10 miles    
Events      
T = Trace of Precipitation, MM = Missing Value Source: NWS Daily Summary

Daily Weather History Graph

Daily Weather History Graph

Search for Another Location

Airport or City:

Astronomy

Jul. 10, 2019 Rise Set
Actual Time 5:38 AM EDT 8:37 PM EDT
Civil Twilight 5:05 AM EDT 9:10 PM EDT
Nautical Twilight 4:23 AM EDT 9:52 PM EDT
Astronomical Twilight 3:33 AM EDT 10:41 PM EDT
Moon 2:38 PM EDT (7/10) 1:20 AM EDT (7/10)
Length of Visible Light 16h 05m
Length of Day
14h 58m
Waxing Gibbous, 63% of the Moon is Illuminated
Jul 10
Waxing Gibbous
Jul 16
Full
Jul 24
Last Quarter
Jul 31
New
Aug 7
First Quarter

Hourly Weather History & Observations

Time (EDT) Temp. Heat Index Dew Point Humidity Pressure Visibility Wind Dir Wind Speed Gust Speed Precip Events Conditions
12:54 AM 69.1 °F - 64.0 °F 84% 30.06 in 9.0 mi ESE 5.8 mph - N/A   Clear
1:54 AM 66.9 °F - 64.0 °F 90% 30.05 in 9.0 mi East 5.8 mph - N/A   Clear
2:54 AM 66.9 °F - 63.0 °F 87% 30.05 in 9.0 mi ESE 6.9 mph - N/A   Clear
3:54 AM 64.9 °F - 63.0 °F 93% 30.05 in 9.0 mi ESE 4.6 mph - N/A   Clear
4:54 AM 64.9 °F - 62.1 °F 90% 30.04 in 9.0 mi East 4.6 mph - N/A   Clear
5:54 AM 64.0 °F - 62.1 °F 93% 30.07 in 8.0 mi ESE 4.6 mph - N/A   Scattered Clouds
6:54 AM 66.0 °F - 63.0 °F 90% 30.07 in 8.0 mi East 3.5 mph - N/A   Clear
7:54 AM 70.0 °F - 64.0 °F 81% 30.06 in 9.0 mi Calm Calm - N/A   Clear
8:54 AM 73.9 °F - 66.0 °F 76% 30.06 in 9.0 mi Calm Calm - N/A   Clear
9:54 AM 80.1 °F 82.3 °F 66.9 °F 64% 30.06 in 9.0 mi West 3.5 mph - N/A   Clear
10:54 AM 82.0 °F 84.5 °F 66.9 °F 60% 30.04 in 10.0 mi West 6.9 mph - N/A   Clear
11:44 AM 82.0 °F 83.8 °F 64.9 °F 56% 30.07 in 10.0 mi WSW 12.7 mph - N/A   Clear
11:54 AM 84.0 °F 86.3 °F 66.0 °F 55% 30.04 in 10.0 mi West 10.4 mph 16.1 mph N/A   Partly Cloudy
12:54 PM 86.0 °F 87.6 °F 64.9 °F 49% 30.02 in 10.0 mi SSW 5.8 mph - N/A   Partly Cloudy
1:54 PM 84.0 °F 85.4 °F 64.0 °F 51% 30.02 in 10.0 mi Variable 4.6 mph - N/A   Mostly Cloudy
2:54 PM 87.1 °F 89.2 °F 66.0 °F 49% 30.01 in 9.0 mi Variable 4.6 mph - N/A   Mostly Cloudy
3:54 PM 88.0 °F 90.3 °F 66.0 °F 48% 29.99 in 10.0 mi SSW 10.4 mph 19.6 mph N/A   Mostly Cloudy
4:54 PM 88.0 °F 89.6 °F 64.9 °F 46% 29.97 in 10.0 mi SW 6.9 mph - N/A   Clear
5:54 PM 87.1 °F 88.9 °F 64.9 °F 48% 29.97 in 10.0 mi SW 5.8 mph - N/A   Partly Cloudy
6:54 PM 87.1 °F 90.6 °F 68.0 °F 53% 29.96 in 10.0 mi SW 8.1 mph - N/A   Partly Cloudy
7:54 PM 82.9 °F 86.5 °F 69.1 °F 63% 29.95 in 10.0 mi South 5.8 mph - N/A   Partly Cloudy
8:54 PM 81.0 °F 83.8 °F 68.0 °F 65% 29.95 in 10.0 mi Variable 4.6 mph - N/A   Partly Cloudy
9:54 PM 80.1 °F 82.7 °F 68.0 °F 67% 29.96 in 10.0 mi South 5.8 mph - N/A   Scattered Clouds
10:54 PM 79.0 °F - 68.0 °F 69% 29.96 in 10.0 mi SSW 5.8 mph - N/A   Scattered Clouds
11:54 PM 77.0 °F - 69.1 °F 76% 29.96 in 10.0 mi SW 6.9 mph - N/A   Overcast